Overview Statistics Trail Chart Weather Telemetry Raw packets
 

This is the latest recevied weather packets stored in our database for station/object OH6GKW. If no packets are shown the sender has not sent any weather packets the latest 10 day(s).

<< 29 30 31 32 33 34 35 >>
Time Temp. Humidity Pressure Rain* Wind** Luminosity Snow
1788455928 11.67° C 94% 998.6 hPa 0 mm - 12 W/m² -
1788455620 11.67° C 94% 998.8 hPa 0 mm - 16 W/m² -
1788455316 11.67° C 94% 998.8 hPa 0 mm - 12 W/m² -
1788455016 12.22° C 94% 998.8 hPa 0 mm - 14 W/m² -
1788454722 12.22° C 94% 998.9 hPa 0 mm - 14 W/m² -
1788454414 12.22° C 94% 998.9 hPa 0 mm - 18 W/m² -
1788454127 12.22° C 94% 998.9 hPa 0 mm - 19 W/m² -
1788453820 12.22° C 94% 999.1 hPa 0 mm - 18 W/m² -
1788453512 12.22° C 93% 999.1 hPa 0 mm - 14 W/m² -
1788453234 12.22° C 93% 999.1 hPa 0 mm - 12 W/m² -
1788452927 12.22° C 92% 999.1 hPa 0 mm - 12 W/m² -
1788452623 12.22° C 92% 999.1 hPa 0 mm - 14 W/m² -
1788452315 12.22° C 91% 999.1 hPa 0 mm - 16 W/m² -
1788452011 12.78° C 90% 999.1 hPa 0 mm - 16 W/m² -
1788451722 12.78° C 90% 999.1 hPa 0 mm - 18 W/m² -
1788451417 12.78° C 89% 999.1 hPa 0 mm - 21 W/m² -
1788451127 12.78° C 88% 999.3 hPa 0 mm - 25 W/m² -
1788450823 13.33° C 86% 999.3 hPa 0 mm - 32 W/m² -
1788450512 13.89° C 86% 999.3 hPa 0 mm - 32 W/m² -
1788450233 13.89° C 85% 999.1 hPa 0 mm - 37 W/m² -
1788449922 13.89° C 88% 999.1 hPa 0 mm - 60 W/m² -
1788449617 13.89° C 88% 999.1 hPa 0 mm - 63 W/m² -
1788449326 13.89° C 89% 999.1 hPa 0 mm - 62 W/m² -
1788449021 14.44° C 91% 999.1 hPa 0 mm - 56 W/m² -
1788448713 14.44° C 91% 999.1 hPa 0 mm - 55 W/m² -

* Rain since midnight (hover to see other rain measurements)
** Current wind speed in m/s (hover to see current wind gust speed)